N8244L MPMG-MWCR

Flight info

Callsign N8244L
Flight time 2h 15m
Altitude 32000
Route TBG UL465 EMASA DCT ALOBO
Aircraft STAR/L-SDFGRWY/S

Departure

Time 2026-05-03 21:00
Airport Marcos A. Gelabert International Airport (MPMG)

Arrival

Time 2026-05-03 23:15
Airport Owen Roberts International Airport (MWCR)
Time Latitude Longitude Altitude Speed Heading
2026-05-03 20:34 8.96544 -79.55748 30 ft 2 kts 95°
2026-05-03 20:34 8.96542 -79.55717 30 ft 14 kts 93°
2026-05-03 20:35 8.96541 -79.55701 29 ft 0 kts 94°
2026-05-03 20:55 8.96544 -79.55694 29 ft 6 kts 46°
2026-05-03 20:56 8.96643 -79.55708 29 ft 22 kts
2026-05-03 20:56 8.96840 -79.55692 29 ft 34 kts
2026-05-03 20:56 8.97106 -79.55668 31 ft 41 kts
2026-05-03 20:56 8.97347 -79.55655 30 ft 26 kts 348°
2026-05-03 20:57 8.97422 -79.55705 30 ft 11 kts 16°
2026-05-03 20:57 8.97550 -79.55656 30 ft 27 kts 22°
2026-05-03 20:57 8.97774 -79.55617 31 ft 38 kts
2026-05-03 20:57 8.98049 -79.55593 32 ft 36 kts
2026-05-03 20:58 8.98146 -79.55532 33 ft 9 kts 129°
2026-05-03 20:58 8.98107 -79.55490 33 ft 14 kts 158°
2026-05-03 20:58 8.98079 -79.55490 33 ft 0 kts 187°
2026-05-03 20:59 8.98073 -79.55491 33 ft 8 kts 186°
2026-05-03 20:59 8.97876 -79.55509 33 ft 49 kts 185°
2026-05-03 20:59 8.97393 -79.55552 30 ft 91 kts 184°
2026-05-03 20:59 8.96625 -79.55607 144 ft 124 kts 182°
2026-05-03 21:00 8.95693 -79.55647 664 ft 135 kts 179°
2026-05-03 21:00 8.95378 -79.55645 903 ft 130 kts 178°
2026-05-03 21:00 8.93782 -79.55622 1794 ft 150 kts 183°
2026-05-03 21:00 8.92741 -79.55684 2397 ft 151 kts 185°
2026-05-03 21:01 8.91684 -79.55740 3020 ft 152 kts 183°
2026-05-03 21:01 8.90623 -79.55772 3644 ft 153 kts 182°
2026-05-03 21:01 8.89563 -79.55804 4290 ft 153 kts 182°
2026-05-03 21:01 8.88498 -79.55846 4928 ft 153 kts 182°
2026-05-03 21:02 8.87440 -79.55888 5572 ft 152 kts 181°
2026-05-03 21:02 8.86382 -79.55926 6236 ft 151 kts 180°
2026-05-03 21:02 8.85330 -79.55962 6863 ft 151 kts 180°
2026-05-03 21:02 8.84279 -79.56000 7488 ft 151 kts 180°
2026-05-03 21:03 8.83228 -79.56039 8121 ft 151 kts 180°
2026-05-03 21:03 8.82174 -79.56079 8775 ft 152 kts 180°
2026-05-03 21:03 8.81120 -79.56117 9453 ft 152 kts 180°
2026-05-03 21:03 8.80015 -79.56157 9954 ft 165 kts 180°
2026-05-03 21:04 8.78944 -79.56579 10542 ft 172 kts 222°
2026-05-03 21:04 8.78429 -79.57653 11191 ft 175 kts 265°
2026-05-03 21:04 8.78755 -79.58813 11834 ft 175 kts 308°
2026-05-03 21:04 8.79734 -79.59458 12477 ft 172 kts 351°
2026-05-03 21:05 8.80901 -79.59352 13131 ft 169 kts 18°
2026-05-03 21:05 8.82032 -79.59009 13776 ft 170 kts 22°
2026-05-03 21:05 8.83156 -79.58623 14365 ft 171 kts 23°
2026-05-03 21:05 8.84282 -79.58218 14940 ft 172 kts 24°
2026-05-03 21:06 8.85434 -79.57871 15506 ft 175 kts 13°
2026-05-03 21:06 8.86660 -79.57765 16061 ft 179 kts
2026-05-03 21:06 8.87913 -79.57797 16617 ft 181 kts 360°
2026-05-03 21:06 8.89178 -79.57942 17167 ft 185 kts 352°
2026-05-03 21:07 8.90448 -79.58201 17742 ft 187 kts 351°
2026-05-03 21:07 8.91741 -79.58424 18319 ft 190 kts 353°
2026-05-03 21:07 8.93054 -79.58627 18875 ft 191 kts 352°
2026-05-03 21:07 8.94364 -79.58854 19449 ft 191 kts 351°
2026-05-03 21:08 8.95677 -79.59080 19967 ft 192 kts 350°
2026-05-03 21:08 8.96999 -79.59301 20518 ft 193 kts 350°
2026-05-03 21:08 8.98325 -79.59536 21037 ft 194 kts 350°
2026-05-03 21:08 8.99663 -79.59757 21545 ft 195 kts 349°
2026-05-03 21:09 9.00990 -79.59978 22044 ft 196 kts 349°
2026-05-03 21:09 9.02341 -79.60217 22548 ft 198 kts 349°
2026-05-03 21:09 9.03702 -79.60440 23051 ft 199 kts 349°
2026-05-03 21:09 9.05074 -79.60673 23536 ft 201 kts 349°
2026-05-03 21:10 9.06453 -79.60914 23947 ft 202 kts 349°
2026-05-03 21:10 9.07843 -79.61147 24362 ft 203 kts 348°
2026-05-03 21:10 9.09234 -79.61388 24757 ft 204 kts 348°
2026-05-03 21:10 9.10639 -79.61630 25160 ft 205 kts 350°
2026-05-03 21:11 9.12052 -79.61857 25565 ft 206 kts 350°
2026-05-03 21:11 9.13467 -79.62103 25962 ft 207 kts 349°
2026-05-03 21:11 9.14888 -79.62350 26363 ft 208 kts 349°
2026-05-03 21:11 9.16326 -79.62591 26748 ft 210 kts 350°
2026-05-03 21:12 9.17767 -79.62837 27136 ft 211 kts 349°
2026-05-03 21:12 9.19209 -79.63085 27560 ft 211 kts 350°
2026-05-03 21:12 9.20662 -79.63330 27952 ft 212 kts 350°
2026-05-03 21:12 9.22123 -79.63579 28336 ft 213 kts 349°
2026-05-03 21:13 9.23590 -79.63829 28712 ft 214 kts 348°
2026-05-03 21:13 9.25040 -79.64084 29072 ft 215 kts 349°
2026-05-03 21:13 9.26518 -79.64330 29415 ft 216 kts 349°
2026-05-03 21:13 9.28011 -79.64581 29684 ft 220 kts 348°
2026-05-03 21:14 9.29556 -79.64849 29812 ft 230 kts 349°
2026-05-03 21:14 9.31177 -79.65123 29871 ft 242 kts 349°
2026-05-03 21:14 9.32879 -79.65410 29897 ft 253 kts 351°
2026-05-03 21:14 9.34656 -79.65714 29909 ft 264 kts 352°
2026-05-03 21:15 9.36497 -79.66018 29915 ft 273 kts 351°
2026-05-03 21:15 9.38393 -79.66351 29919 ft 280 kts 350°
2026-05-03 21:15 9.40335 -79.66683 29918 ft 287 kts 349°
2026-05-03 21:15 9.42333 -79.67032 29919 ft 295 kts 348°
2026-05-03 21:16 9.43682 -79.67258 29919 ft 299 kts 349°
2026-05-03 21:16 9.45752 -79.67606 29919 ft 303 kts 349°
2026-05-03 21:16 9.49957 -79.68326 29919 ft 310 kts 349°
2026-05-03 21:17 9.54238 -79.69055 29914 ft 313 kts 349°
2026-05-03 21:17 9.58553 -79.69791 29914 ft 316 kts 349°
2026-05-03 21:18 9.62897 -79.70533 29915 ft 317 kts 349°
2026-05-03 21:18 9.67255 -79.71275 29914 ft 318 kts 348°
2026-05-03 21:19 9.71619 -79.72024 29903 ft 318 kts 349°
2026-05-03 21:19 9.75988 -79.72769 29903 ft 319 kts 348°
2026-05-03 21:20 9.80361 -79.73513 29907 ft 319 kts 349°
2026-05-03 21:20 9.84739 -79.74266 29898 ft 319 kts 348°
2026-05-03 21:21 9.89115 -79.75012 29897 ft 319 kts 348°
2026-05-03 21:21 9.93468 -79.75756 29897 ft 320 kts 349°
2026-05-03 21:22 9.97855 -79.76509 29897 ft 320 kts 348°
2026-05-03 21:22 10.02235 -79.77257 29897 ft 319 kts 348°
2026-05-03 21:23 10.06615 -79.78006 29896 ft 319 kts 348°
2026-05-03 21:23 10.10986 -79.78756 29895 ft 318 kts 348°
2026-05-03 21:24 10.15358 -79.79503 29895 ft 318 kts 348°
2026-05-03 21:24 10.19711 -79.80248 29895 ft 317 kts 349°
2026-05-03 21:25 10.24058 -79.80996 29895 ft 316 kts 348°
2026-05-03 21:25 10.28369 -79.81732 29895 ft 316 kts 348°
2026-05-03 21:26 10.32701 -79.82477 29898 ft 316 kts 349°
2026-05-03 21:26 10.37034 -79.83219 29897 ft 316 kts 348°
2026-05-03 21:27 10.41362 -79.83965 29894 ft 315 kts 348°
2026-05-03 21:27 10.45699 -79.84682 29897 ft 315 kts 348°
2026-05-03 21:28 10.50030 -79.85403 29898 ft 315 kts 348°
2026-05-03 21:28 10.54360 -79.86124 29897 ft 316 kts 349°
2026-05-03 21:29 10.58668 -79.86842 29895 ft 315 kts 348°
2026-05-03 21:29 10.63002 -79.87558 29895 ft 315 kts 348°
2026-05-03 21:30 10.67329 -79.88280 29896 ft 315 kts 348°
2026-05-03 21:30 10.71651 -79.89000 29897 ft 315 kts 348°
2026-05-03 21:31 10.75971 -79.89715 29896 ft 315 kts 348°
2026-05-03 21:31 10.80291 -79.90437 29895 ft 315 kts 349°
2026-05-03 21:32 10.84613 -79.91158 29894 ft 315 kts 348°
2026-05-03 21:32 10.88939 -79.91873 29898 ft 315 kts 348°
2026-05-03 21:33 10.93265 -79.92597 29897 ft 315 kts 349°
2026-05-03 21:33 10.97557 -79.93310 29898 ft 315 kts 348°
2026-05-03 21:34 11.01878 -79.94029 29895 ft 315 kts 349°
2026-05-03 21:34 11.06200 -79.94753 29895 ft 314 kts 349°
2026-05-03 21:35 11.10525 -79.95471 29895 ft 314 kts 349°
2026-05-03 21:35 11.14843 -79.96188 29894 ft 314 kts 347°
2026-05-03 21:36 11.19135 -79.96912 29896 ft 315 kts 348°
2026-05-03 21:36 11.23467 -79.97632 29897 ft 315 kts 348°
2026-05-03 21:37 11.27792 -79.98351 29897 ft 315 kts 349°
2026-05-03 21:37 11.32124 -79.99078 29897 ft 315 kts 348°
2026-05-03 21:38 11.36457 -79.99799 29895 ft 315 kts 347°
2026-05-03 21:38 11.40791 -80.00524 29894 ft 315 kts 348°
2026-05-03 21:39 11.45122 -80.01251 29897 ft 315 kts 349°
2026-05-03 21:39 11.49454 -80.01972 29898 ft 315 kts 347°
2026-05-03 21:40 11.53786 -80.02696 29897 ft 316 kts 346°
2026-05-03 21:40 11.58139 -80.03429 29897 ft 317 kts 349°
2026-05-03 21:41 11.62505 -80.04155 29897 ft 318 kts 347°
2026-05-03 21:41 11.66880 -80.04888 29897 ft 319 kts 347°
2026-05-03 21:42 11.71259 -80.05625 29900 ft 319 kts 348°
2026-05-03 21:42 11.75608 -80.06349 29901 ft 319 kts 347°
2026-05-03 21:43 11.79994 -80.07085 29904 ft 319 kts 348°
2026-05-03 21:43 11.84370 -80.07823 29903 ft 319 kts 347°
2026-05-03 21:44 11.88751 -80.08552 29906 ft 319 kts 346°
2026-05-03 21:44 11.93133 -80.09288 29906 ft 319 kts 347°
2026-05-03 21:45 11.97519 -80.10029 29903 ft 319 kts 347°
2026-05-03 21:45 12.01906 -80.10761 29903 ft 319 kts 347°
2026-05-03 21:46 12.06287 -80.11495 29903 ft 319 kts 347°
2026-05-03 21:46 12.10676 -80.12237 29903 ft 319 kts 348°
2026-05-03 21:47 12.15070 -80.12971 29905 ft 320 kts 347°
2026-05-03 21:47 12.19464 -80.13709 29905 ft 320 kts 348°
2026-05-03 21:48 12.23854 -80.14451 29909 ft 320 kts 346°
2026-05-03 21:48 12.28225 -80.15185 29906 ft 321 kts 346°
2026-05-03 21:49 12.32640 -80.15925 29908 ft 322 kts 346°
2026-05-03 21:49 12.37058 -80.16674 29908 ft 322 kts 347°
2026-05-03 21:50 12.41478 -80.17412 29908 ft 322 kts 346°
2026-05-03 21:50 12.45899 -80.18156 29911 ft 322 kts 346°
2026-05-03 21:51 12.50317 -80.18905 29911 ft 322 kts 348°
2026-05-03 21:51 12.54735 -80.19648 29911 ft 322 kts 346°
2026-05-03 21:52 12.59157 -80.20391 29911 ft 322 kts 347°
2026-05-03 21:52 12.63576 -80.21142 29911 ft 322 kts 347°
2026-05-03 21:53 12.67999 -80.21882 29911 ft 322 kts 346°
2026-05-03 21:53 12.72420 -80.22627 29911 ft 322 kts 348°
2026-05-03 21:54 12.76838 -80.23378 29914 ft 322 kts 347°
2026-05-03 21:54 12.81258 -80.24122 29914 ft 322 kts 346°
2026-05-03 21:55 12.85645 -80.24860 29914 ft 322 kts 348°
2026-05-03 21:55 12.90063 -80.25612 29917 ft 322 kts 347°
2026-05-03 21:56 12.94478 -80.26358 29917 ft 322 kts 346°
2026-05-03 21:56 12.98897 -80.27101 29917 ft 322 kts 347°
2026-05-03 21:57 13.03318 -80.27852 29917 ft 322 kts 347°
2026-05-03 21:57 13.07748 -80.28604 29917 ft 323 kts 346°
2026-05-03 21:58 13.12181 -80.29348 29917 ft 323 kts 346°
2026-05-03 21:58 13.16610 -80.30103 29917 ft 323 kts 347°
2026-05-03 21:59 13.21039 -80.30857 29919 ft 323 kts 346°
2026-05-03 21:59 13.25474 -80.31601 29922 ft 323 kts 346°
2026-05-03 22:00 13.29900 -80.32356 29924 ft 322 kts 347°
2026-05-03 22:00 13.34319 -80.33107 29925 ft 321 kts 346°
2026-05-03 22:01 13.38733 -80.33851 29923 ft 321 kts 346°
2026-05-03 22:01 13.43134 -80.34600 29922 ft 320 kts 346°
2026-05-03 22:02 13.47529 -80.35348 29925 ft 320 kts 346°
2026-05-03 22:02 13.51179 -80.35965 29925 ft 320 kts 346°
2026-05-03 22:03 13.56278 -80.36832 29925 ft 320 kts 346°
2026-05-03 22:03 13.60664 -80.37580 29925 ft 319 kts 346°
2026-05-03 22:04 13.65051 -80.38324 29925 ft 319 kts 346°
2026-05-03 22:04 13.68724 -80.38950 29927 ft 319 kts 346°
2026-05-03 22:05 13.73077 -80.39691 29925 ft 319 kts 346°
2026-05-03 22:05 13.77456 -80.40434 29925 ft 318 kts 346°
2026-05-03 22:06 13.81828 -80.41180 29927 ft 318 kts 347°
2026-05-03 22:06 13.86198 -80.41926 29928 ft 318 kts 346°
2026-05-03 22:07 13.90564 -80.42668 29927 ft 318 kts 346°
2026-05-03 22:07 13.94930 -80.43412 29928 ft 318 kts 346°
2026-05-03 22:08 13.99291 -80.44159 29930 ft 318 kts 346°
2026-05-03 22:08 14.03654 -80.44902 29936 ft 318 kts 346°
2026-05-03 22:09 14.08017 -80.45645 29933 ft 318 kts 346°
2026-05-03 22:10 14.14558 -80.46763 29936 ft 318 kts 346°
2026-05-03 22:10 14.18921 -80.47510 29938 ft 318 kts 346°
2026-05-03 22:11 14.23285 -80.48256 29939 ft 318 kts 346°
2026-05-03 22:11 14.27649 -80.49000 29939 ft 318 kts 346°
2026-05-03 22:12 14.31981 -80.49743 29936 ft 318 kts 347°
2026-05-03 22:12 14.36340 -80.50489 29936 ft 317 kts 346°
2026-05-03 22:13 14.40699 -80.51234 29938 ft 317 kts 346°
2026-05-03 22:13 14.45058 -80.51981 29938 ft 317 kts 346°
2026-05-03 22:14 14.49417 -80.52729 29939 ft 317 kts 346°
2026-05-03 22:14 14.53772 -80.53474 29939 ft 317 kts 346°
2026-05-03 22:15 14.58130 -80.54220 29941 ft 317 kts 346°
2026-05-03 22:15 14.62488 -80.54969 29941 ft 317 kts 346°
2026-05-03 22:16 14.66817 -80.55712 29941 ft 318 kts 346°
2026-05-03 22:16 14.71179 -80.56461 29941 ft 318 kts 346°
2026-05-03 22:17 14.75538 -80.57209 29939 ft 318 kts 346°
2026-05-03 22:17 14.79901 -80.57959 29941 ft 318 kts 346°
2026-05-03 22:18 14.84260 -80.58709 29944 ft 318 kts 346°
2026-05-03 22:18 14.88617 -80.59458 29947 ft 318 kts 346°
2026-05-03 22:19 14.92981 -80.60209 29949 ft 318 kts 346°
2026-05-03 22:19 14.97344 -80.60957 29949 ft 318 kts 346°
2026-05-03 22:20 15.01703 -80.61712 29949 ft 318 kts 346°
2026-05-03 22:20 15.06061 -80.62464 29949 ft 318 kts 346°
2026-05-03 22:21 15.10394 -80.63216 29954 ft 318 kts 346°
2026-05-03 22:21 15.14756 -80.63966 29950 ft 318 kts 346°
2026-05-03 22:22 15.19115 -80.64722 29952 ft 318 kts 347°
2026-05-03 22:22 15.23473 -80.65477 29952 ft 317 kts 347°
2026-05-03 22:23 15.27820 -80.66214 29946 ft 313 kts
2026-05-03 22:23 15.32060 -80.66912 29960 ft 305 kts 354°
2026-05-03 22:24 15.36210 -80.67657 29955 ft 300 kts 358°
2026-05-03 22:24 15.38260 -80.68018 29955 ft 298 kts 358°
2026-05-03 22:24 15.40304 -80.68376 29962 ft 299 kts 346°
2026-05-03 22:25 15.44436 -80.69142 29961 ft 304 kts 357°
2026-05-03 22:25 15.48596 -80.69711 29956 ft 301 kts 357°
2026-05-03 22:25 15.50658 -80.70079 29955 ft 300 kts 357°
2026-05-03 22:26 15.52709 -80.70444 29955 ft 298 kts 358°
2026-05-03 22:26 15.54752 -80.70800 29955 ft 297 kts 358°
2026-05-03 22:26 15.56785 -80.71159 29954 ft 296 kts 359°
2026-05-03 22:26 15.58811 -80.71512 29956 ft 295 kts 358°
2026-05-03 22:27 15.60829 -80.71866 29954 ft 294 kts 357°
2026-05-03 22:27 15.62841 -80.72220 29956 ft 293 kts 360°
2026-05-03 22:27 15.64852 -80.72570 29954 ft 293 kts 358°
2026-05-03 22:27 15.66856 -80.72924 29955 ft 292 kts 358°
2026-05-03 22:28 15.68862 -80.73283 29955 ft 292 kts 359°
2026-05-03 22:28 15.70866 -80.73636 29956 ft 292 kts 359°
2026-05-03 22:28 15.72865 -80.73989 29959 ft 291 kts 357°
2026-05-03 22:28 15.74863 -80.74346 29960 ft 291 kts 359°
2026-05-03 22:29 15.76862 -80.74699 29957 ft 291 kts 357°
2026-05-03 22:29 15.78861 -80.75053 29957 ft 291 kts 359°
2026-05-03 22:29 15.80857 -80.75410 29958 ft 292 kts 358°
2026-05-03 22:29 15.82860 -80.75769 29959 ft 293 kts 359°
2026-05-03 22:30 15.84874 -80.76128 29959 ft 294 kts 358°
2026-05-03 22:30 15.86889 -80.76494 29960 ft 294 kts 359°
2026-05-03 22:30 15.88912 -80.76856 29961 ft 295 kts 358°
2026-05-03 22:30 15.90936 -80.77218 29960 ft 296 kts 359°
2026-05-03 22:31 15.92971 -80.77568 29962 ft 296 kts
2026-05-03 22:31 15.95007 -80.77914 29960 ft 296 kts 358°
2026-05-03 22:31 15.97040 -80.78262 29968 ft 297 kts
2026-05-03 22:31 15.99096 -80.78497 29950 ft 297 kts
2026-05-03 22:32 16.01129 -80.78877 29962 ft 297 kts 355°
2026-05-03 22:32 16.03147 -80.79334 29961 ft 297 kts 354°
2026-05-03 22:32 16.05141 -80.79807 29962 ft 298 kts 355°
2026-05-03 22:32 16.07167 -80.80292 29961 ft 299 kts 352°
2026-05-03 22:33 16.09201 -80.80785 29958 ft 301 kts 353°
2026-05-03 22:33 16.13289 -80.81793 29961 ft 303 kts 352°
2026-05-03 22:34 16.17432 -80.82744 29964 ft 306 kts 352°
2026-05-03 22:34 16.21599 -80.83700 29960 ft 307 kts 351°
2026-05-03 22:35 16.25787 -80.84656 29963 ft 309 kts 351°
2026-05-03 22:35 16.30001 -80.85621 29963 ft 311 kts 351°
2026-05-03 22:36 16.34234 -80.86590 29964 ft 312 kts 350°
2026-05-03 22:36 16.38490 -80.87560 29963 ft 314 kts 347°
2026-05-03 22:37 16.42763 -80.88542 29963 ft 315 kts 348°
2026-05-03 22:37 16.47053 -80.89525 29966 ft 316 kts 347°
2026-05-03 22:38 16.51358 -80.90504 29963 ft 317 kts 345°
2026-05-03 22:38 16.55671 -80.91493 29965 ft 318 kts 346°
2026-05-03 22:39 16.59990 -80.92486 29963 ft 318 kts 346°
2026-05-03 22:39 16.64317 -80.93472 29963 ft 319 kts 345°
2026-05-03 22:40 16.68635 -80.94467 29966 ft 321 kts 343°
2026-05-03 22:40 16.73002 -80.95472 29966 ft 322 kts 342°
2026-05-03 22:41 16.77380 -80.96471 29966 ft 322 kts 342°
2026-05-03 22:41 16.81757 -80.97474 29966 ft 322 kts 343°
2026-05-03 22:42 16.86131 -80.98486 29968 ft 322 kts 342°
2026-05-03 22:42 16.90506 -80.99487 29968 ft 322 kts 341°
2026-05-03 22:43 16.94882 -81.00492 29969 ft 321 kts 340°
2026-05-03 22:43 16.99237 -81.01497 29968 ft 320 kts 340°
2026-05-03 22:44 17.03577 -81.02494 29969 ft 319 kts 339°
2026-05-03 22:44 17.07906 -81.03485 29969 ft 318 kts 340°
2026-05-03 22:44 17.10073 -81.03990 29758 ft 324 kts 340°
2026-05-03 22:45 17.12328 -81.04505 29333 ft 336 kts 342°
2026-05-03 22:45 17.14613 -81.05027 29216 ft 336 kts 341°
2026-05-03 22:45 17.16889 -81.05558 29155 ft 334 kts 341°
2026-05-03 22:45 17.19197 -81.06092 28500 ft 348 kts 342°
2026-05-03 22:46 17.21626 -81.06643 27493 ft 364 kts 343°
2026-05-03 22:46 17.24113 -81.07222 26756 ft 368 kts 344°
2026-05-03 22:46 17.26618 -81.07798 26099 ft 369 kts 344°
2026-05-03 22:46 17.29094 -81.08377 25406 ft 370 kts 344°
2026-05-03 22:47 17.31610 -81.08959 24741 ft 370 kts 346°
2026-05-03 22:47 17.34125 -81.09533 24053 ft 371 kts 345°
2026-05-03 22:47 17.36646 -81.10124 23295 ft 371 kts 346°
2026-05-03 22:47 17.39171 -81.10700 22447 ft 370 kts 346°
2026-05-03 22:48 17.41692 -81.11284 21562 ft 371 kts 347°
2026-05-03 22:48 17.44206 -81.11865 20799 ft 368 kts 347°
2026-05-03 22:48 17.46695 -81.12436 20127 ft 364 kts 347°
2026-05-03 22:48 17.49148 -81.13007 19487 ft 359 kts 348°
2026-05-03 22:49 17.51580 -81.13568 18854 ft 356 kts 348°
2026-05-03 22:49 17.53984 -81.14125 18257 ft 351 kts 348°
2026-05-03 22:49 17.56357 -81.14680 17588 ft 347 kts 349°
2026-05-03 22:49 17.58703 -81.15218 16913 ft 343 kts 349°
2026-05-03 22:50 17.61023 -81.15760 16264 ft 340 kts 349°
2026-05-03 22:50 17.63331 -81.16292 15620 ft 338 kts 349°
2026-05-03 22:50 17.65613 -81.16824 15020 ft 335 kts 348°
2026-05-03 22:50 17.67879 -81.17348 14432 ft 332 kts 348°
2026-05-03 22:51 17.69370 -81.17694 14061 ft 330 kts 348°
2026-05-03 22:51 17.71606 -81.18216 13473 ft 328 kts 348°
2026-05-03 22:51 17.73823 -81.18730 12898 ft 325 kts 347°
2026-05-03 22:51 17.76722 -81.19404 12175 ft 320 kts 347°
2026-05-03 22:52 17.78886 -81.19905 11658 ft 317 kts 347°
2026-05-03 22:52 17.81016 -81.20400 11281 ft 310 kts 347°
2026-05-03 22:52 17.82434 -81.20730 11020 ft 307 kts 347°
2026-05-03 22:52 17.84497 -81.21206 10752 ft 301 kts 347°
2026-05-03 22:53 17.86528 -81.21680 10505 ft 295 kts 346°
2026-05-03 22:53 17.88518 -81.22143 10257 ft 292 kts 347°
2026-05-03 22:53 17.90471 -81.22593 10063 ft 288 kts 346°
2026-05-03 22:53 17.92407 -81.23046 9942 ft 283 kts 347°
2026-05-03 22:54 17.94304 -81.23488 9944 ft 276 kts 347°
2026-05-03 22:54 17.96165 -81.23918 9946 ft 272 kts 346°
2026-05-03 22:54 17.98001 -81.24346 9941 ft 269 kts 346°
2026-05-03 22:54 17.99824 -81.24773 9942 ft 268 kts 347°
2026-05-03 22:55 18.01641 -81.25191 9945 ft 267 kts 347°
2026-05-03 22:55 18.03449 -81.25614 9946 ft 266 kts 346°
2026-05-03 22:55 18.05257 -81.26037 9942 ft 266 kts 347°
2026-05-03 22:55 18.07063 -81.26455 9940 ft 266 kts 347°
2026-05-03 22:56 18.08866 -81.26874 9938 ft 265 kts 346°
2026-05-03 22:56 18.10667 -81.27297 9934 ft 265 kts 346°
2026-05-03 22:56 18.12467 -81.27716 9930 ft 265 kts 347°
2026-05-03 22:56 18.14268 -81.28134 9928 ft 265 kts 346°
2026-05-03 22:57 18.16069 -81.28554 9917 ft 266 kts 346°
2026-05-03 22:57 18.17872 -81.28977 9911 ft 266 kts 347°
2026-05-03 22:57 18.19679 -81.29396 9909 ft 266 kts 346°
2026-05-03 22:57 18.21483 -81.29816 9907 ft 266 kts 347°
2026-05-03 22:58 18.23286 -81.30240 9905 ft 265 kts 347°
2026-05-03 22:58 18.25087 -81.30659 9893 ft 264 kts 347°
2026-05-03 22:58 18.26876 -81.31074 9898 ft 262 kts 347°
2026-05-03 22:58 18.28653 -81.31492 9899 ft 262 kts 347°
2026-05-03 22:59 18.30430 -81.31907 9888 ft 261 kts 347°
2026-05-03 22:59 18.32203 -81.32320 9883 ft 261 kts 347°
2026-05-03 22:59 18.33975 -81.32735 9876 ft 261 kts 347°
2026-05-03 22:59 18.35747 -81.33150 9859 ft 261 kts 347°
2026-05-03 23:00 18.37526 -81.33562 9520 ft 266 kts 347°
2026-05-03 23:00 18.39353 -81.33992 8564 ft 262 kts 348°
2026-05-03 23:00 18.41147 -81.34414 7377 ft 272 kts 349°
2026-05-03 23:00 18.43022 -81.34851 6370 ft 277 kts 349°
2026-05-03 23:01 18.44902 -81.35288 5445 ft 275 kts 350°
2026-05-03 23:01 18.46760 -81.35721 4573 ft 273 kts 349°
2026-05-03 23:01 18.48616 -81.36161 4033 ft 274 kts 349°
2026-05-03 23:01 18.50476 -81.36593 3763 ft 274 kts 349°
2026-05-03 23:02 18.52334 -81.37030 3493 ft 273 kts 349°
2026-05-03 23:02 18.54187 -81.37465 3201 ft 273 kts 350°
2026-05-03 23:02 18.56034 -81.37895 2951 ft 271 kts 349°
2026-05-03 23:02 18.57877 -81.38328 2650 ft 272 kts 349°
2026-05-03 23:03 18.59693 -81.38752 2385 ft 270 kts 349°
2026-05-03 23:03 18.61510 -81.39179 2136 ft 267 kts 349°
2026-05-03 23:03 18.63323 -81.39607 1910 ft 265 kts 349°
2026-05-03 23:03 18.65109 -81.40021 1706 ft 261 kts 349°
2026-05-03 23:04 18.66854 -81.40446 1596 ft 253 kts 349°
2026-05-03 23:04 18.68566 -81.40778 1551 ft 252 kts 352°
2026-05-03 23:04 18.70345 -81.41129 1526 ft 265 kts 350°
2026-05-03 23:04 18.72172 -81.41518 1517 ft 270 kts 351°
2026-05-03 23:05 18.74016 -81.41885 1513 ft 268 kts 351°
2026-05-03 23:05 18.75832 -81.42258 1506 ft 264 kts 350°
2026-05-03 23:05 18.77630 -81.42630 1506 ft 262 kts 351°
2026-05-03 23:05 18.79415 -81.42990 1507 ft 260 kts 352°
2026-05-03 23:06 18.81189 -81.43352 1507 ft 258 kts 351°
2026-05-03 23:06 18.82944 -81.43709 1509 ft 257 kts 351°
2026-05-03 23:06 18.84692 -81.44072 1507 ft 255 kts 351°
2026-05-03 23:06 18.86432 -81.44420 1508 ft 254 kts 351°
2026-05-03 23:07 18.88159 -81.44777 1506 ft 253 kts 350°
2026-05-03 23:07 18.89879 -81.45134 1507 ft 251 kts 351°
2026-05-03 23:07 18.91581 -81.45471 1506 ft 261 kts 351°
2026-05-03 23:07 18.93399 -81.45845 1510 ft 269 kts 350°
2026-05-03 23:08 18.95247 -81.46230 1512 ft 271 kts 351°
2026-05-03 23:08 18.97100 -81.46605 1509 ft 271 kts 351°
2026-05-03 23:08 18.98935 -81.46979 1505 ft 266 kts 351°
2026-05-03 23:08 19.00736 -81.47350 1505 ft 262 kts 351°
2026-05-03 23:09 19.02513 -81.47715 1498 ft 258 kts 350°
2026-05-03 23:09 19.04267 -81.48074 1502 ft 256 kts 350°
2026-05-03 23:09 19.06012 -81.48429 1502 ft 256 kts 350°
2026-05-03 23:09 19.07760 -81.48791 1500 ft 256 kts 351°
2026-05-03 23:10 19.09509 -81.49147 1498 ft 256 kts 351°
2026-05-03 23:10 19.11261 -81.49505 1494 ft 256 kts 351°
2026-05-03 23:10 19.13007 -81.49853 1493 ft 254 kts 352°
2026-05-03 23:10 19.14749 -81.50176 1494 ft 253 kts 352°
2026-05-03 23:11 19.16458 -81.50618 1496 ft 252 kts 346°
2026-05-03 23:11 19.18148 -81.51099 1502 ft 251 kts 348°
2026-05-03 23:11 19.19852 -81.51520 1508 ft 253 kts 347°
2026-05-03 23:11 19.21580 -81.51989 1509 ft 258 kts 346°
2026-05-03 23:12 19.23355 -81.52161 1513 ft 258 kts 11°
2026-05-03 23:12 19.24992 -81.51450 1513 ft 255 kts 39°
2026-05-03 23:12 19.26084 -81.50024 1511 ft 249 kts 69°
2026-05-03 23:12 19.26567 -81.48277 1509 ft 247 kts 79°
2026-05-03 23:13 19.26905 -81.46490 1509 ft 248 kts 81°
2026-05-03 23:13 19.27205 -81.44689 1506 ft 249 kts 82°
2026-05-03 23:13 19.27542 -81.42937 1506 ft 237 kts 77°
2026-05-03 23:13 19.27965 -81.41367 1505 ft 203 kts 77°
2026-05-03 23:14 19.28233 -81.40247 1503 ft 123 kts 80°
2026-05-03 23:14 19.28431 -81.39448 1274 ft 115 kts 79°
2026-05-03 23:14 19.28668 -81.38598 772 ft 129 kts 76°
2026-05-03 23:14 19.28884 -81.37643 306 ft 136 kts 83°
2026-05-03 23:15 19.29064 -81.36689 26 ft 123 kts 76°
2026-05-03 23:15 19.29243 -81.35934 16 ft 91 kts 76°
2026-05-03 23:15 19.29379 -81.35370 10 ft 64 kts 76°
2026-05-03 23:15 19.29438 -81.35119 13 ft 4 kts 76°
2026-05-03 23:16 19.29412 -81.35154 13 ft 20 kts 258°
2026-05-03 23:16 19.29358 -81.35381 10 ft 41 kts 257°
2026-05-03 23:16 19.29301 -81.35680 11 ft 35 kts 255°
2026-05-03 23:16 19.29255 -81.35877 10 ft 20 kts 256°
2026-05-03 23:17 19.29225 -81.36004 12 ft 20 kts 262°
2026-05-03 23:17 19.29195 -81.36147 12 ft 25 kts 251°
2026-05-03 23:17 19.29248 -81.36213 12 ft 5 kts 346°
2026-05-03 23:17 19.29264 -81.36217 12 ft 10 kts 343°
2026-05-03 23:18 19.29316 -81.36235 12 ft 0 kts 342°
2026-05-03 23:18 19.29345 -81.36251 12 ft 4 kts 317°
2026-05-03 23:18 19.29348 -81.36276 12 ft 12 kts 249°
2026-05-03 23:18 19.29368 -81.36290 12 ft 1 kts 77°
2026-05-03 23:19 19.29368 -81.36289 12 ft 0 kts 77°
2026-05-04 00:05 19.29367 -81.36284 12 ft 6 kts 111°
2026-05-04 00:05 19.29275 -81.36221 12 ft 24 kts 163°
2026-05-04 00:05 19.29175 -81.36245 12 ft 11 kts 246°
2026-05-04 00:06 19.29125 -81.36413 12 ft 38 kts 256°
2026-05-04 00:06 19.29035 -81.36796 11 ft 43 kts 260°
2026-05-04 00:06 19.29028 -81.36891 3 ft 3 kts 220°
2026-05-04 00:06 19.29069 -81.36673 -3 ft 61 kts 76°
2026-05-04 00:07 19.29218 -81.36043 12 ft 118 kts 76°
2026-05-04 00:07 19.29385 -81.35024 167 ft 160 kts 105°
2026-05-04 00:07 19.29137 -81.33946 720 ft 157 kts 52°
2026-05-04 00:07 19.29996 -81.34096 1264 ft 149 kts 287°
2026-05-04 00:08 19.29588 -81.35067 455 ft 155 kts 228°
2026-05-04 00:08 19.29197 -81.36097 29 ft 132 kts 257°
2026-05-04 00:08 19.29019 -81.36869 12 ft 81 kts 257°
2026-05-04 00:08 19.28986 -81.37024 12 ft 0 kts 257°
2026-05-04 00:09 19.28972 -81.37031 12 ft 13 kts 159°
2026-05-04 00:09 19.29018 -81.36878 12 ft 37 kts 75°
2026-05-04 00:09 19.29137 -81.36372 12 ft 105 kts 76°
2026-05-04 00:09 19.29360 -81.35461 343 ft 124 kts 77°
2026-05-04 00:10 19.29590 -81.34816 1563 ft 66 kts 73°
2026-05-04 00:10 19.29972 -81.34121 1367 ft 107 kts 64°
2026-05-04 00:10 19.30106 -81.33955 1335 ft 12 kts 335°
2026-05-04 00:10 19.30095 -81.33985 0 ft 0 kts 327°
2026-05-04 00:11 19.30097 -81.33987 3 ft 0 kts 327°